Home   Weather   Bruny Island   Past weeks
Flag for Australia

Past Weather in Bruny Island, Tasmania, Australia — Yesterday and Last 2 Weeks

Now
46 °F

Partly cloudy.


Feels Like: 39 °F
Forecast: 49 / 40 °F
Wind: 18 mph from Southwest

Location: Hobart Airport

Current Time: Jun 19, 2019 at 3:09:06 am

Latest Report: Jun 19, 2019 at 2:00 am


Visibility: N/A

Pressure: 30.01 "Hg

Humidity: 66%

Dew Point: 36 °F

Location of Bruny IslandLocation

Past Weather in Bruny Island — Graph

°F

Bruny Island Temperature Yesterday

Maximum temperature yesterday: 59 °F (at 11:00 am)
Minimum temperature yesterday: 46 °F (at 5:30 am)
Average temperature yesterday: 52 °F

High & Low Weather Summary for the Past Weeks

 TemperatureHumidityPressure
High64 °F (Jun 11, 2:00 pm)93% (Jun 12, 12:00 am)30.39 "Hg (Jun 12, 12:00 am)
Low36 °F (Jun 16, 4:30 am)41% (Jun 15, 2:00 pm)29.45 "Hg (Jun 10, 2:30 pm)
Average51 °F67%30.01 "Hg
* Reported Jun 4 1:00 am — Jun 19 1:30 am, Bruny Island. Weather by CustomWeather, © 2019

Note: Actual official high and low records may vary slightly from our data, if they occured in-between our weather recording intervals... More about our weather records

Advertising

Bruny Island Weather History for the Previous 24 Hours

Scroll right to see more
 ConditionsComfort  
Time TempWeatherWind HumidityBarometerVisibility
1:30 am
Wed, Jun 19
46 °FPassing clouds.18 mph66%30.01 "HgN/A
1:11 am46 °FPartly cloudy.17 mph66%29.98 "HgN/A
12:30 am46 °FPartly cloudy.16 mph71%29.98 "HgN/A
12:00 am46 °FPartly cloudy.18 mph71%29.98 "HgN/A
11:34 pm
Tue, Jun 18
46 °FLight rain. Partly cloudy.17 mph76%29.95 "HgN/A
11:00 pm46 °FLight rain. Passing clouds.17 mph76%29.95 "HgN/A
10:30 pm46 °FRain. Passing clouds.18 mph82%29.95 "HgN/A
10:00 pm46 °FLight rain. Partly cloudy.20 mph82%29.92 "HgN/A
9:30 pm46 °FLight rain. Partly cloudy.15 mph82%29.92 "HgN/A
9:00 pm48 °FLight rain. Passing clouds.13 mph76%29.89 "HgN/A
8:30 pm48 °FLight rain. Passing clouds.14 mph82%29.89 "HgN/A
8:16 pm48 °FRain. Passing clouds.17 mph82%29.86 "HgN/A
8:00 pm52 °FLight rain. Passing clouds.7 mph58%29.86 "HgN/A
7:30 pm50 °FPassing clouds.14 mph67%29.86 "HgN/A
7:00 pm50 °FPassing clouds.12 mph71%29.83 "HgN/A
6:30 pm50 °FPassing clouds.13 mph71%29.83 "HgN/A
6:00 pm52 °FPassing clouds.10 mph62%29.80 "HgN/A
5:30 pm52 °FPartly cloudy.12 mph58%29.80 "HgN/A
5:00 pm54 °FPartly cloudy.13 mph54%29.77 "HgN/A
4:30 pm54 °FPartly sunny.15 mph58%29.77 "HgN/A
4:00 pm55 °FPartly sunny.10 mph51%29.74 "HgN/A
3:30 pm57 °FBroken clouds.17 mph48%29.74 "HgN/A
3:00 pm55 °FScattered clouds.17 mph51%29.74 "HgN/A
2:30 pm57 °FBroken clouds.15 mph48%29.74 "HgN/A
2:00 pm57 °FBroken clouds.15 mph48%29.74 "HgN/A
1:30 pm57 °FBroken clouds.14 mph48%29.74 "HgN/A
1:00 pm57 °FBroken clouds.13 mph48%29.74 "HgN/A
12:30 pm59 °FBroken clouds.16 mph45%29.74 "HgN/A
12:00 pm57 °FBroken clouds.18 mph44%29.74 "HgN/A
11:30 am57 °FBroken clouds.15 mph55%29.77 "HgN/A
11:00 am59 °FScattered showers. Broken clouds.15 mph51%29.77 "HgN/A
10:00 am55 °FScattered showers. Broken clouds.15 mph63%29.80 "HgN/A
9:30 am55 °FBroken clouds.12 mph63%29.80 "HgN/A
9:00 am55 °FBroken clouds.7 mph63%29.80 "HgN/A
8:30 am54 °FBroken clouds.10 mph67%29.80 "HgN/A
8:00 am54 °FBroken clouds.12 mph67%29.83 "HgN/A
7:30 am54 °FPartly cloudy.13 mph67%29.83 "HgN/A
7:00 am54 °FPartly cloudy.13 mph67%29.83 "HgN/A
6:30 am50 °FClear.8 mph76%29.83 "Hg10 mi
6:00 am54 °FClear.7 mph67%29.83 "Hg10 mi
5:30 am46 °FPassing clouds.No wind82%29.86 "HgN/A
5:00 am50 °FPassing clouds.No wind71%29.86 "HgN/A
4:30 am50 °FPassing clouds.5 mph76%29.86 "HgN/A
4:00 am48 °FPassing clouds.5 mph76%29.89 "HgN/A
3:30 am48 °FPassing clouds.3 mph82%29.89 "HgN/A
3:00 am48 °FPassing clouds.5 mph82%29.89 "HgN/A
Weather by CustomWeather, © 2019

See weather overview